MAS1447 WMKL-WMKK

Flight info

Callsign MAS1447
Flight time 0h 49m
Altitude 37000
Route ISTEL1B RINBA Y507 KAKAK KAKAK1G
Aircraft B738/M-SDE2E3FGHIRWXY/LB1

Departure

Time 2026-04-23 13:46
Airport Langkawi International Airport (WMKL)

Arrival

Time 2026-04-23 14:36
Airport Kuala Lumpur International Airport (WMKK)
Time Latitude Longitude Altitude Speed Heading
2026-04-23 13:27 6.33984 99.73184 32 ft 0 kts 303°
2026-04-23 13:39 6.33983 99.73186 32 ft 2 kts 304°
2026-04-23 13:39 6.33975 99.73199 32 ft 2 kts 303°
2026-04-23 13:39 6.33967 99.73212 32 ft 2 kts 303°
2026-04-23 13:39 6.33960 99.73222 32 ft 2 kts 311°
2026-04-23 13:40 6.33947 99.73228 32 ft 2 kts 359°
2026-04-23 13:40 6.33935 99.73225 32 ft 0 kts 31°
2026-04-23 13:40 6.33930 99.73222 32 ft 1 kts 36°
2026-04-23 13:40 6.33928 99.73221 32 ft 0 kts 35°
2026-04-23 13:42 6.33929 99.73221 32 ft 0 kts 35°
2026-04-23 13:42 6.33952 99.73238 32 ft 6 kts 34°
2026-04-23 13:43 6.33997 99.73267 32 ft 9 kts 33°
2026-04-23 13:43 6.34053 99.73304 33 ft 10 kts 33°
2026-04-23 13:43 6.34104 99.73361 32 ft 10 kts 87°
2026-04-23 13:43 6.34102 99.73429 32 ft 9 kts 55°
2026-04-23 13:44 6.34183 99.73489 32 ft 18 kts 33°
2026-04-23 13:44 6.34286 99.73557 32 ft 16 kts 34°
2026-04-23 13:44 6.34375 99.73619 32 ft 14 kts 35°
2026-04-23 13:44 6.34444 99.73677 32 ft 12 kts 58°
2026-04-23 13:45 6.34441 99.73749 32 ft 9 kts 117°
2026-04-23 13:45 6.34403 99.73795 32 ft 7 kts 149°
2026-04-23 13:45 6.34356 99.73799 32 ft 6 kts 200°
2026-04-23 13:45 6.34324 99.73779 32 ft 4 kts 214°
2026-04-23 13:46 6.34297 99.73760 32 ft 9 kts 214°
2026-04-23 13:46 6.33970 99.73537 32 ft 103 kts 213°
2026-04-23 13:46 6.33152 99.72980 48 ft 177 kts 214°
2026-04-23 13:46 6.32090 99.72308 868 ft 186 kts 213°
2026-04-23 13:47 6.30981 99.71626 1788 ft 195 kts 203°
2026-04-23 13:47 6.29597 99.71534 2307 ft 215 kts 161°
2026-04-23 13:47 6.28388 99.72468 2762 ft 236 kts 122°
2026-04-23 13:47 6.27798 99.74086 3015 ft 252 kts 104°
2026-04-23 13:48 6.27095 99.75659 2993 ft 254 kts 130°
2026-04-23 13:48 6.25881 99.76485 3500 ft 273 kts 161°
2026-04-23 13:48 6.24017 99.76860 4552 ft 280 kts 170°
2026-04-23 13:48 6.22146 99.77408 5592 ft 287 kts 157°
2026-04-23 13:49 6.20368 99.78319 6652 ft 293 kts 151°
2026-04-23 13:49 6.18633 99.79337 7650 ft 299 kts 149°
2026-04-23 13:49 6.16846 99.80431 8678 ft 304 kts 149°
2026-04-23 13:49 6.15066 99.81546 9658 ft 309 kts 149°
2026-04-23 13:50 6.13236 99.82705 10584 ft 316 kts 149°
2026-04-23 13:50 6.11345 99.83905 11320 ft 329 kts 149°
2026-04-23 13:50 6.09408 99.85140 12188 ft 336 kts 149°
2026-04-23 13:50 6.08005 99.86035 12859 ft 339 kts 149°
2026-04-23 13:51 6.06005 99.87313 13797 ft 342 kts 150°
2026-04-23 13:51 6.04032 99.88575 14704 ft 345 kts 150°
2026-04-23 13:51 6.01996 99.89876 15617 ft 348 kts 150°
2026-04-23 13:51 5.99960 99.91177 16495 ft 351 kts 150°
2026-04-23 13:52 5.97897 99.92497 17356 ft 354 kts 150°
2026-04-23 13:52 5.95828 99.93821 18187 ft 356 kts 150°
2026-04-23 13:52 5.93752 99.95147 18993 ft 359 kts 150°
2026-04-23 13:52 5.91644 99.96495 19788 ft 361 kts 150°
2026-04-23 13:53 5.89540 99.97840 20550 ft 363 kts 150°
2026-04-23 13:53 5.87402 99.99207 21293 ft 366 kts 150°
2026-04-23 13:53 5.85266 100.00572 22019 ft 368 kts 150°
2026-04-23 13:53 5.83098 100.01958 22727 ft 370 kts 150°
2026-04-23 13:54 5.80945 100.03333 23400 ft 372 kts 150°
2026-04-23 13:54 5.78770 100.04723 24050 ft 375 kts 150°
2026-04-23 13:54 5.76571 100.06128 24681 ft 377 kts 150°
2026-04-23 13:54 5.74366 100.07537 25300 ft 379 kts 150°
2026-04-23 13:55 5.72135 100.08964 25904 ft 382 kts 150°
2026-04-23 13:55 5.69915 100.10396 26470 ft 384 kts 149°
2026-04-23 13:55 5.67635 100.11853 27037 ft 386 kts 150°
2026-04-23 13:55 5.65385 100.13285 27602 ft 388 kts 149°
2026-04-23 13:56 5.63104 100.14741 28137 ft 390 kts 149°
2026-04-23 13:56 5.60848 100.16181 28633 ft 392 kts 149°
2026-04-23 13:56 5.58521 100.17666 29149 ft 394 kts 149°
2026-04-23 13:56 5.56231 100.19126 29616 ft 396 kts 149°
2026-04-23 13:57 5.53896 100.20616 30085 ft 398 kts 149°
2026-04-23 13:57 5.51564 100.22106 30534 ft 400 kts 149°
2026-04-23 13:57 5.49218 100.23604 30948 ft 403 kts 148°
2026-04-23 13:57 5.46852 100.25114 31385 ft 405 kts 148°
2026-04-23 13:58 5.44473 100.26640 31782 ft 408 kts 148°
2026-04-23 13:58 5.42097 100.28165 32179 ft 410 kts 148°
2026-04-23 13:58 5.39690 100.29706 32567 ft 412 kts 148°
2026-04-23 13:58 5.37280 100.31245 32958 ft 413 kts 148°
2026-04-23 13:59 5.34838 100.32807 33348 ft 415 kts 148°
2026-04-23 13:59 5.32435 100.34342 33734 ft 416 kts 148°
2026-04-23 13:59 5.29999 100.35899 34044 ft 419 kts 148°
2026-04-23 13:59 5.27521 100.37479 34357 ft 422 kts 148°
2026-04-23 14:00 5.25863 100.38535 34549 ft 424 kts 148°
2026-04-23 14:00 5.22560 100.40642 34997 ft 426 kts 148°
2026-04-23 14:00 5.20039 100.42252 35243 ft 429 kts 148°
2026-04-23 14:00 5.17540 100.43845 35507 ft 432 kts 148°
2026-04-23 14:01 5.15015 100.45452 35759 ft 434 kts 148°
2026-04-23 14:01 5.12449 100.47083 36202 ft 432 kts 148°
2026-04-23 14:01 5.09938 100.48685 36557 ft 431 kts 147°
2026-04-23 14:01 5.07407 100.50300 36822 ft 432 kts 147°
2026-04-23 14:02 5.04885 100.51900 36827 ft 435 kts 147°
2026-04-23 14:02 4.99742 100.55161 36830 ft 445 kts 146°
2026-04-23 14:03 4.94449 100.58530 36830 ft 456 kts 146°
2026-04-23 14:03 4.89082 100.61945 36822 ft 460 kts 146°
2026-04-23 14:04 4.83714 100.65359 36818 ft 458 kts 146°
2026-04-23 14:04 4.78373 100.68756 36817 ft 458 kts 147°
2026-04-23 14:05 4.73047 100.72137 36814 ft 458 kts 147°
2026-04-23 14:05 4.67673 100.75556 36810 ft 458 kts 147°
2026-04-23 14:06 4.62272 100.78933 36803 ft 459 kts 149°
2026-04-23 14:06 4.56688 100.81925 36805 ft 458 kts 151°
2026-04-23 14:07 4.51106 100.84954 36805 ft 457 kts 150°
2026-04-23 14:07 4.42765 100.89516 36804 ft 455 kts 150°
2026-04-23 14:08 4.37255 100.92535 36804 ft 453 kts 150°
2026-04-23 14:08 4.31744 100.95559 36804 ft 452 kts 150°
2026-04-23 14:09 4.26255 100.98571 36804 ft 451 kts 150°
2026-04-23 14:09 4.20792 101.01570 36804 ft 450 kts 150°
2026-04-23 14:10 4.15308 101.04581 36804 ft 448 kts 150°
2026-04-23 14:10 4.09877 101.07561 36804 ft 448 kts 150°
2026-04-23 14:11 4.04410 101.10563 36804 ft 448 kts 150°
2026-04-23 14:11 3.98969 101.13549 36804 ft 448 kts 150°
2026-04-23 14:12 3.93514 101.16543 36802 ft 446 kts 150°
2026-04-23 14:12 3.90826 101.18017 36378 ft 441 kts 150°
2026-04-23 14:12 3.88128 101.19497 35730 ft 440 kts 150°
2026-04-23 14:13 3.85412 101.20987 34988 ft 440 kts 150°
2026-04-23 14:13 3.82756 101.22444 34238 ft 441 kts 150°
2026-04-23 14:13 3.80055 101.23926 33453 ft 442 kts 150°
2026-04-23 14:13 3.77352 101.25408 32650 ft 444 kts 151°
2026-04-23 14:14 3.74660 101.26886 31826 ft 446 kts 151°
2026-04-23 14:14 3.71954 101.28371 31017 ft 446 kts 151°
2026-04-23 14:14 3.69250 101.29853 30424 ft 442 kts 151°
2026-04-23 14:14 3.66581 101.31316 29804 ft 439 kts 152°
2026-04-23 14:15 3.63919 101.32778 29177 ft 436 kts 152°
2026-04-23 14:15 3.61281 101.34225 28554 ft 433 kts 152°
2026-04-23 14:15 3.58686 101.35648 27936 ft 431 kts 152°
2026-04-23 14:15 3.56047 101.37094 27305 ft 428 kts 152°
2026-04-23 14:16 3.53484 101.38500 26691 ft 425 kts 152°
2026-04-23 14:16 3.50906 101.39912 26068 ft 423 kts 153°
2026-04-23 14:16 3.48327 101.41326 25443 ft 420 kts 153°
2026-04-23 14:16 3.45772 101.42727 24820 ft 418 kts 153°
2026-04-23 14:17 3.43252 101.44108 24216 ft 415 kts 153°
2026-04-23 14:17 3.40832 101.45435 23634 ft 413 kts 153°
2026-04-23 14:17 3.38921 101.46481 23163 ft 411 kts 153°
2026-04-23 14:17 3.35838 101.48171 22401 ft 409 kts 153°
2026-04-23 14:18 3.33353 101.49532 21785 ft 407 kts 154°
2026-04-23 14:18 3.30870 101.50892 21165 ft 405 kts 154°
2026-04-23 14:18 3.28428 101.52228 20553 ft 403 kts 154°
2026-04-23 14:18 3.25991 101.53564 19939 ft 402 kts 154°
2026-04-23 14:19 3.23516 101.54919 19311 ft 400 kts 154°
2026-04-23 14:19 3.21128 101.56227 18704 ft 399 kts 154°
2026-04-23 14:19 3.18671 101.57574 18075 ft 398 kts 154°
2026-04-23 14:19 3.16263 101.58893 17455 ft 397 kts 154°
2026-04-23 14:20 3.13828 101.60227 16827 ft 396 kts 154°
2026-04-23 14:20 3.11368 101.61575 16189 ft 395 kts 154°
2026-04-23 14:20 3.08972 101.62886 15567 ft 394 kts 154°
2026-04-23 14:20 3.06584 101.64194 14945 ft 393 kts 154°
2026-04-23 14:21 3.04166 101.65517 14312 ft 393 kts 154°
2026-04-23 14:21 3.01726 101.66853 13677 ft 391 kts 154°
2026-04-23 14:21 2.99431 101.68111 13263 ft 372 kts 153°
2026-04-23 14:21 2.97215 101.69326 13092 ft 357 kts 153°
2026-04-23 14:22 2.95069 101.70500 12830 ft 349 kts 153°
2026-04-23 14:22 2.92943 101.71662 12289 ft 353 kts 153°
2026-04-23 14:22 2.90806 101.72830 11713 ft 354 kts 153°
2026-04-23 14:22 2.88657 101.74006 11143 ft 355 kts 153°
2026-04-23 14:23 2.86570 101.75149 10662 ft 353 kts 152°
2026-04-23 14:23 2.84643 101.76205 10456 ft 343 kts 152°
2026-04-23 14:23 2.82611 101.77318 10326 ft 324 kts 152°
2026-04-23 14:23 2.80690 101.78371 10205 ft 307 kts 152°
2026-04-23 14:24 2.78911 101.79449 9913 ft 299 kts 147°
2026-04-23 14:24 2.77210 101.80626 9533 ft 294 kts 146°
2026-04-23 14:24 2.75520 101.81776 9159 ft 294 kts 146°
2026-04-23 14:24 2.73859 101.82890 8796 ft 293 kts 146°
2026-04-23 14:25 2.72184 101.84016 8431 ft 292 kts 146°
2026-04-23 14:25 2.70497 101.85149 8063 ft 291 kts 146°
2026-04-23 14:25 2.68808 101.86282 7692 ft 290 kts 146°
2026-04-23 14:25 2.67135 101.87404 7356 ft 288 kts 146°
2026-04-23 14:26 2.65507 101.88495 7229 ft 277 kts 146°
2026-04-23 14:26 2.63932 101.89551 7136 ft 266 kts 146°
2026-04-23 14:26 2.62419 101.90565 6981 ft 258 kts 146°
2026-04-23 14:26 2.60934 101.91560 6640 ft 258 kts 145°
2026-04-23 14:27 2.59439 101.92562 6312 ft 258 kts 145°
2026-04-23 14:27 2.57956 101.93557 5990 ft 257 kts 145°
2026-04-23 14:27 2.56484 101.94544 5663 ft 257 kts 145°
2026-04-23 14:27 2.54975 101.95462 5325 ft 257 kts 156°
2026-04-23 14:28 2.53233 101.95673 5002 ft 249 kts 193°
2026-04-23 14:28 2.51790 101.94927 4750 ft 244 kts 221°
2026-04-23 14:28 2.50680 101.93652 4474 ft 240 kts 236°
2026-04-23 14:28 2.49755 101.92278 4201 ft 238 kts 236°
2026-04-23 14:29 2.48825 101.90917 3932 ft 236 kts 236°
2026-04-23 14:29 2.48088 101.89490 3665 ft 231 kts 259°
2026-04-23 14:29 2.48233 101.87956 3488 ft 218 kts 296°
2026-04-23 14:29 2.49082 101.86769 3495 ft 208 kts 323°
2026-04-23 14:30 2.50271 101.85950 3493 ft 210 kts 327°
2026-04-23 14:30 2.51455 101.85133 3493 ft 200 kts 327°
2026-04-23 14:30 2.52573 101.84382 3491 ft 186 kts 328°
2026-04-23 14:30 2.53649 101.83659 3493 ft 188 kts 328°
2026-04-23 14:31 2.54730 101.82935 3493 ft 188 kts 328°
2026-04-23 14:31 2.55828 101.82198 3493 ft 188 kts 328°
2026-04-23 14:31 2.56913 101.81471 3465 ft 190 kts 328°
2026-04-23 14:31 2.58011 101.80735 3252 ft 190 kts 328°
2026-04-23 14:32 2.59104 101.80003 2993 ft 188 kts 328°
2026-04-23 14:32 2.60184 101.79279 2745 ft 182 kts 328°
2026-04-23 14:32 2.61203 101.78595 2491 ft 175 kts 328°
2026-04-23 14:32 2.62182 101.77939 2259 ft 165 kts 328°
2026-04-23 14:33 2.63154 101.77288 2055 ft 168 kts 328°
2026-04-23 14:33 2.64101 101.76652 1805 ft 160 kts 328°
2026-04-23 14:33 2.64970 101.76069 1586 ft 142 kts 328°
2026-04-23 14:33 2.65790 101.75520 1421 ft 141 kts 328°
2026-04-23 14:34 2.66602 101.74976 1214 ft 142 kts 328°
2026-04-23 14:34 2.67413 101.74429 1028 ft 141 kts 328°
2026-04-23 14:34 2.68238 101.73876 833 ft 141 kts 328°
2026-04-23 14:34 2.69049 101.73333 645 ft 141 kts 328°
2026-04-23 14:35 2.69865 101.72787 456 ft 141 kts 328°
2026-04-23 14:35 2.70670 101.72246 263 ft 141 kts 328°
2026-04-23 14:35 2.71491 101.71701 98 ft 140 kts 328°
2026-04-23 14:35 2.72231 101.71204 76 ft 110 kts 327°
2026-04-23 14:36 2.72744 101.70860 75 ft 70 kts 327°
2026-04-23 14:36 2.73048 101.70657 75 ft 43 kts 327°
2026-04-23 14:36 2.73189 101.70562 75 ft 13 kts 325°
2026-04-23 14:36 2.73263 101.70512 75 ft 14 kts 330°
2026-04-23 14:37 2.73365 101.70471 75 ft 13 kts 348°
2026-04-23 14:37 2.73436 101.70463 75 ft 7 kts 356°
2026-04-23 14:37 2.73474 101.70461 75 ft 3 kts 357°
2026-04-23 14:37 2.73498 101.70460 75 ft 3 kts 357°
2026-04-23 14:38 2.73524 101.70458 75 ft 4 kts 357°
2026-04-23 14:38 2.73560 101.70456 75 ft 8 kts 357°
2026-04-23 14:38 2.73658 101.70456 75 ft 15 kts 354°
2026-04-23 14:38 2.73745 101.70416 75 ft 12 kts 326°
2026-04-23 14:39 2.73813 101.70371 75 ft 11 kts 326°
2026-04-23 14:39 2.73872 101.70332 75 ft 9 kts 327°
2026-04-23 14:39 2.73930 101.70293 75 ft 12 kts 326°
2026-04-23 14:39 2.74011 101.70239 75 ft 13 kts 326°
2026-04-23 14:40 2.74079 101.70193 75 ft 8 kts 326°
2026-04-23 14:40 2.74122 101.70164 75 ft 6 kts 325°
2026-04-23 14:40 2.74165 101.70135 75 ft 12 kts 326°
2026-04-23 14:40 2.74279 101.70059 75 ft 20 kts 326°
2026-04-23 14:41 2.74383 101.69989 75 ft 15 kts 326°
2026-04-23 14:41 2.74472 101.69960 75 ft 13 kts 24°
2026-04-23 14:41 2.74513 101.69995 75 ft 6 kts 53°
2026-04-23 14:41 2.74540 101.70037 75 ft 9 kts 57°
2026-04-23 14:42 2.74594 101.70113 75 ft 16 kts 53°
2026-04-23 14:42 2.74657 101.70173 75 ft 10 kts
2026-04-23 14:42 2.74721 101.70145 75 ft 9 kts 325°
2026-04-23 14:42 2.74770 101.70114 75 ft 7 kts 342°
2026-04-23 14:43 2.74812 101.70126 75 ft 6 kts 54°
2026-04-23 14:43 2.74842 101.70171 75 ft 9 kts 57°
2026-04-23 14:43 2.74874 101.70219 75 ft 7 kts 56°
2026-04-23 14:43 2.74906 101.70267 75 ft 9 kts 55°
2026-04-23 14:44 2.74943 101.70320 75 ft 7 kts 56°
2026-04-23 14:44 2.74970 101.70361 75 ft 6 kts 54°
2026-04-23 14:44 2.75000 101.70365 75 ft 4 kts 321°
2026-04-23 14:44 2.75022 101.70350 75 ft 3 kts 327°
2026-04-23 14:45 2.75037 101.70340 75 ft 2 kts 326°
2026-04-23 14:45 2.75043 101.70336 75 ft 0 kts 326°